User: anonymous   Login
Location: Unspecified
(0.0000°N, 0.0000°E)
Time: 22:28:02
(UTC+00:00)
Language:

ZY 1 - Orbit

View from above orbital plane
View from above orbital plane
View from above satellite
View from above satellite

Ground track
Ground track

The orbit is defined by the following mean orbital elements,

1 38038U          26145.62295953 +.00000000 +00000-0 +21342-3 0 00009
2 38038  98.4077 213.4023 0006908  26.1606 133.6571 14.38194330    00
Epoch (UTC): 25 May 2026 14:57:03
Eccentricity: 0.0006908
inclination: 98.4077°
perigee height: 760 km
apogee height: 769 km
right ascension of ascending node: 213.4023°
argument of perigee: 26.1606°
revolutions per day: 14.38194330
mean anomaly at epoch: 133.6571°

The dashed part of the orbit path shows where the satellite is in the earth's shadow,  

DLR